[ hide orbit diagram ]
For accurate long-term ephemerides, please instead use our Horizons system.This orbit viewer was implemented using two-body methods, and hence should not be used for determining accurate long-term trajectories (over several years or decades) or planetary encounter circumstances.
Orbital Elements at Epoch 2459000.5 (2020-May-31.0) TDB
Reference: JPL 8 (heliocentric ecliptic J2000)
Element | Value | Uncertainty (1-sigma) | Units |
e | .02315786491577258 | 1.2524e-05 | |
a | 39.66722798564582 | 0.00064829 | au |
q | 38.74861967837108 | 0.001129 | au |
i | 18.1218217672484 | 6.9088e-05 | deg |
node | 64.58623579640758 | 1.2503e-05 | deg |
peri | 353.247066247961 | 0.023432 | deg |
M | 194.6656249667083 | 0.024501 | deg |
tp | 2500909.457970082498 (2135-Feb-26.95797008) | 6.1969 | TDB |
period | 91252.80127736134 249.84 | 2.2371 0.006125 | d yr |
n | .003945084369583199 | 9.6714e-08 | deg/d |
Q | 40.58583629292056 | 0.00066331 | au |
|
| | Orbit Determination Parameters
Additional Information
|
[ show covariance matrix ]
470308 (2007 JH43) Discovered 2007-May-10 by Palomar at Palomar |
Reference: | Last Updated: 2016-08-22 |
|
|